Погода в Череповеце

Погода в Череповеце : погода сейчас, прогноз погоды и архив. Всё, что Вы хотите узнать о погоде в Череповеце!

Хотите узнать прогноз погоды в Череповеце? Тогда Вам сюда: Погода в Череповеце

Поиск расширенной информации на нашем сайте:

Полезная информация:

Другие новости

Новости СМИ2

Главная страница сайта

Новости сайта

03.07.2017

Напоминаем, что на нашем специализированном сайте Метеоцентр.Азия вы можете получить высокодетализированные автоматические прогнозы погоды по пунктам России, СНГ и мира в авиационном формате (включающие направление и скорость ветра, видимость, явления погоды, количество и форму облачности, нижнюю и верхнюю границу облачности).

Рекомендуем:

Погода в Череповеце - сегодня

Время (UTC), дата Ветер
(°,м/с) 
Видим.   Явления Облачность Т
(°С)
Тd
(°С)
f(%) Тe
(°С)
Pmin
(гПа)
dP
(гПа)
Po
(мм)
O2
(г/м3)
Тmin Tmax R s Состояние
почвы
12 15.07.19 200 (Ю) 10 км    9/4 1000 м кучево-дожд., средняя 
[Cb calv|Ac trans]
+18.1 +10.5 61 +21  1010.2  -0.4  747  281           
15 15.07.19 270 (З) 10 км    8/3 1000 м кучево-дожд., средняя, верхняя 
[Cb calv|Ac trans|Ci fib]
+18.1 +7.7 51 +19  1010.1  -0.1  747  281    +19.1       
18 15.07.19 тихо ()   10 км    4/1 1000 м средняя, верхняя 
[Sc|Ac trans|Ci fib]
+12.1 +10.2 88 +14  1010.8  0.4  748  287           
21 15.07.19 тихо ()   10 км  местами туман поземный  4/1 1000 м средняя, верхняя 
[Sc|Ac trans|Ci fib]
+8.7 +8.3 97 +9  1011.1  0.1  748  291           
00 16.07.19 тихо ()   4000 м  местами туман поземный  3/0 средняя, верхняя 
[Ac trans|Ci fib]
+5.9 +5.7 99 +6  1011.6  0.4  748  294           
03 16.07.19 тихо ()   10 км  местами туман поземный  4/3 100 м средняя, верхняя 
[St|Ac trans|Ci fib]
+7.8 +7.4 97 +8  1012  0.4  748  292  +4.9        влажная 
06 16.07.19 тихо ()   10 км    4/3 600 м средняя 
[Cu med, cong|Ac trans]
+17 +10.9 67 +19  1011.8  0.3  749  282           
09 16.07.19 210 (ЮЗ) 10 км    8/4 600 м кучево-дожд., средняя 
[Cb calv|Ac trans]
+19.2 +6.4 43 +20  1011.8  0.1  749  281           
12 16.07.19 220 (ЮЗ) 10 км    8/4 600 м кучево-дожд., средняя, верхняя 
[Cb calv|Ac trans|Ci fib]
+19.8 +7.8 46 +21  1011.6  -0.2  748  280           
15 16.07.19 тихо ()   10 км    8/4 600 м средняя, верхняя 
[Sc diur, vesp|Ac trans|Ci fib]
+18.3 +12.2 68 +23  1011.4  -0.3  748  280    +21       
18 16.07.19 тихо ()   10 км    8/4 600 м средняя, верхняя 
[Sc|Ac trans|Ci fib]
+14.4 +13 91 +20  1011.6  748  284           
21 16.07.19 050 (СВ) 10 км    9/4 600 м кучево-дожд., средняя 
[Cb calv|Ac trans]
+14 +11.2 83 +18  1011.3  -0.2  748  285           
00 17.07.19 060 (СВ) 10 км  слаб. ливневой дождь  10/10 900 м кучево-дожд. 
[Cb calv]
+13.3 +12.4 94 +19  1011.1  -0.2  748  285           
03 17.07.19 110 (В) 10 км  {ливн. осадки}  10/8 660 м кучево-дожд., средняя 
[Cb calv|Ac trans]
+14 +13.1 94 +20  1010.9  -0.2  748  284  +12.8      влажная 
06 17.07.19 110 (В) 10 км  в посл. час ливневой дождь  10/8 210 м кучево-дожд., средняя 
[Cb calv|Ac trans]
+16.1 +14.4 90 +25  1010.7  -0.1  748  282           
09 17.07.19 060 (СВ) 10 км  в посл. час ливневой дождь  10/6 420 м кучево-дожд., средняя 
[Cb calv|Ac trans]
+17.5 +15.1 86 +27  1010.3  -0.3  747  280           
12 17.07.19 060 (СВ) 10 км  в посл. час ливневой дождь  9/6 420 м кучево-дожд., средняя 
[Cb calv|Ac trans]
+19.2 +16.2 83 +31  1010.3  747  278           
15 17.07.19 030 (СВ) 1{11}  10 км  гроза, ливневой дождь  10/8 870 м кучево-дожд., средняя 
[Cb cap|Ac trans]
+16.4 +15.2 93 +27  1009.4  -0.9  747  281    +22.1     
18 17.07.19 040 (СВ) 1{10}  9000 м  в посл. час гроза{ливн. осадки}  10/4 600 м кучево-дожд., средняя 
[Cb calv|Ac trans]
+14.8 +14.3 97 +24  1010.3  0.8  747  283           
21 17.07.19 060 (СВ) 10 км  в посл. час ливневой дождь  10/4 600 м кучево-дожд., средняя 
[Cb calv|Ac trans]
+14.4 +13.7 96 +22  1009.4  -0.9  747  283           
00 18.07.19 040 (СВ) 10 км  {ливн. осадки}  10/4 600 м кучево-дожд., средняя 
[Cb calv|Ac trans]
+14.3 +13.9 97 +22  1008  -1.5  746  283           
03 18.07.19 060 (СВ) 10 км    9/4 600 м кучево-дожд., средняя 
[Cb calv|Ac trans]
+15.9 +14.5 91 +24  1006.4  -1.5  744  280  +14.1      влажная 
06 18.07.19 070 (В) 10 км  слаб. ливневой дождь  10/8 420 м кучево-дожд., средняя 
[Cb calv|Ac trans]
+15.1 +14 93 +22  1005.4  -1  744  281           
09 18.07.19 090 (В) 5000 м  слаб. ливневой дождь  10/10 180 м кучево-дожд. 
[Cb calv]
+16.3 +15.4 94 +26  1004.9  -0.4  743  279           
12 18.07.19 090 (В) 8000 м  слаб. ливневой дождь  10/10 150 м кучево-дожд. 
[Cb calv]
+17 +16.2 95 +28  1005.2  0.3  744  279           
Время (UTC), дата Ветер
(°,м/с) 
Видим.   Явления Облачность Т
(°С)
Тd
(°С)
f(%) Тe
(°С)
Pmin
(гПа)
dP
(гПа)
Po
(мм)
O2
(г/м3)
Тmin Tmax R s Состояние
почвы

Для получения пояснительной информации подведите курсор к названию столбца.

ПОГОДА в Череповеце - архив

Всё, что Вы хотите узнать о погоде в Череповеце - удобно и подробно!

Выберите нужную дату (начиная с 1 января 2018* года) и нажмите кнопку "Найти".
Будут отображены архивные сводки погоды по пункту Череповец, начиная с указанной даты.


Отображать данные в формате CSV (для использования в таблицах Excel)


Внимание! Наш архив погоды предназначен исключительно для личного некоммерческого использования в познавательных целях. Если Вам необходимы официальные справки о состоянии погоды (для производственных, юридических, коммерческих и т.п. целей), обращайтесь в органы Росгидромета.

*Примечание: данная дата относится к архиву по метеостанциям СССР (Россия, СНГ, Балтия).
Архив по метеостанциям Зарубежной Европы и Азии (кроме Китая) хранится 10 дней, по другим регионам земного шара (Китай, Африка, Америка, Австралия, Океания) - 1 день.

Череповец - район местоположения метеостанции


Название, широта, долгота, высота метеостанции:
Череповец 59.2°ш. 38°д. 114 м над ур. моря [Российская Федерация]

Дополнительная информация

В oтличие oт бoльшинства пoгoдных сайтoв мы публикуем пoдрoбную метеoинфoрмацию в детальнoм прoфессиoнальнoм фoрмате.

Характеристики температуры и влажнoсти вoздуха измеряются на высoте 2 м в тени вдали oт зданий и деревьев.
Скoрoсть ветра измеряется на высoте 10 м (на урoвне рoста челoвека скoрoсть ветра ниже в 1.5-2 раза). Если метеoстанция нахoдится в гoрoде или в лесу, тo скoрoсть ветра занижена на 2-4 м/с пo сравнению с oткрытым местoм. Скoрoсть ветра над акватoриями крупных рек и oзёр, а также на вершинах хoлмoв на 2-5 м/с выше, чем в oбычных услoвиях.
Атмoсфернoе давление в разных тoчках местнoсти мoжет значительнo oтличаться oт давления на метеoстанции, в зависимoсти oт услoвий рельефа (при пoдъёме на 10 м давление пoнижается примернo на 1 мм рт.ст.).